Starlink 36097

operational
NORAD ID: 67091 Int'l Des: 2025-298 Owner: SPXS Country: US Constellation: starlink
LEOCIRCULAR

About Starlink 36097

Description loading...

Live Position

Loading 3D Globe...

Upcoming Passes

Altitude History

Altitude vs Time

uPlot chart will show altitude changes over time

Two-Line Element Set

1 67091U 25298S 26041.24182456 .00039070 00000-0 89013-3 0 9997
2 67091 69.9991 86.5593 0003506 275.5901 84.4881 15.42741828 9034
Epoch: Feb 10, 2026 • Age: 10 hours

Current Status

Altitude 449.1 km
Velocity 7.65 km/s
Sub-Earth Point 56.90°N, 143.7°W
Launch Date Dec 14, 2025
Age 0.1 years
Type internet

Technical Details

Classification Payload
Mass 575.00 kg
Dry Mass 530.00 kg
Total Mass 575.00 kg
Length 0.30 m
Diameter 4.10 m
Span 29.00 m
Shape Box + pan
Manufacturer SPXS
Bus Type Starlink V2MO
Phase Status In Orbit
Owner/State SPXS/US

Large Constellations

Loading constellations...